Location: Unspecified
(41.1637°N, 24.2901°E)
Time: 11:50:27
(UTC+02:00)

ISS - Pass Details

Date: 08 May 2026
Orbit: 414 x 424 km, 51.6° (Epoch: 12 May)

Event Time Altitude Azimuth Distance (km) Brightness Sun altitude
Rises 04:09:00 0° 300° (WNW) 2,362 -0.2 -11.2°
Reaches altitude 10° 04:11:09 10° 293° (WNW) 1,497 -1.3 -10.9°
Maximum altitude 04:14:20 41° 222° (SW) 625 -3.4 -10.4°
Drops below altitude 10° 04:17:31 10° 151° (SSE) 1,494 -1.0 -9.9°
Sets 04:19:40 0° 144° (SE) 2,356 0.1 -9.6°
